EN

Hourly Weather Kyzyl Yul

Today, 31 July, Saturday

Time Temperature Precipitation Wind Pressure Humidity
00:00 +20°C° 0 mm 1 mps 741 mmHg 78%
01:00 +20°C° 0 mm 1 mps 741 mmHg 79%
02:00 +20°C° 0 mm 1 mps 741 mmHg 80%
03:00 +19°C° 0 mm 1 mps 741 mmHg 81%
04:00 +18°C° 0 mm 2 mps 741 mmHg 82%
05:00 +20°C° 0 mm 2 mps 741 mmHg 75%
06:00 +23°C° 0 mm 2 mps 741 mmHg 67%
07:00 +24°C° 0 mm 3 mps 741 mmHg 60%
08:00 +27°C° 0 mm 4 mps 741 mmHg 52%
09:00 +30°C° 0 mm 5 mps 741 mmHg 44%
10:00 +33°C° 0 mm 6 mps 740 mmHg 36%
11:00 +35°C° 0 mm 7 mps 740 mmHg 31%
12:00 +37°C° 0 mm 8 mps 740 mmHg 26%
13:00 +38°C° 0 mm 9 mps 739 mmHg 22%
14:00 +38°C° 0 mm 9 mps 739 mmHg 24%
15:00 +37°C° 0 mm 8 mps 739 mmHg 26%
16:00 +37°C° 0 mm 8 mps 739 mmHg 28%
17:00 +34°C° 0 mm 7 mps 739 mmHg 34%
18:00 +33°C° 0 mm 7 mps 739 mmHg 39%
19:00 +30°C° 0 mm 6 mps 740 mmHg 44%
20:00 +28°C° 0.4 mm 5 mps 740 mmHg 56%
21:00 +26°C° 0.4 mm 4 mps 740 mmHg 67%
22:00 +23°C° 0.4 mm 2 mps 741 mmHg 78%
23:00 +22°C° 0.4 mm 3 mps 741 mmHg 83%

Tomorrow, 1 August, Sunday

Time Temperature Precipitation Wind Pressure Humidity
00:00 +21°C° 0.4 mm 3 mps 741 mmHg 87%
01:00 +20°C° 0.4 mm 3 mps 742 mmHg 92%
02:00 +20°C° 0.1 mm 2 mps 742 mmHg 92%
03:00 +19°C° 0.1 mm 2 mps 742 mmHg 92%
04:00 +19°C° 0.1 mm 2 mps 742 mmHg 92%
05:00 +20°C° 0 mm 2 mps 742 mmHg 89%
06:00 +21°C° 0 mm 2 mps 743 mmHg 85%
07:00 +22°C° 0 mm 3 mps 743 mmHg 82%
08:00 +25°C° 0 mm 4 mps 743 mmHg 68%
09:00 +27°C° 0 mm 4 mps 744 mmHg 55%
10:00 +29°C° 0 mm 5 mps 744 mmHg 41%
11:00 +30°C° 0 mm 5 mps 744 mmHg 36%
12:00 +32°C° 0 mm 5 mps 744 mmHg 32%
13:00 +33°C° 0 mm 5 mps 744 mmHg 27%
14:00 +33°C° 0 mm 6 mps 744 mmHg 26%
15:00 +33°C° 0 mm 6 mps 744 mmHg 25%
16:00 +34°C° 0 mm 6 mps 744 mmHg 24%
17:00 +33°C° 0 mm 5 mps 744 mmHg 27%
18:00 +32°C° 0 mm 5 mps 744 mmHg 29%
19:00 +30°C° 0 mm 4 mps 744 mmHg 31%
20:00 +28°C° 0 mm 3 mps 744 mmHg 36%
21:00 +25°C° 0 mm 2 mps 745 mmHg 41%
22:00 +23°C° 0 mm 1 mps 745 mmHg 45%
23:00 +22°C° 0 mm 1 mps 745 mmHg 48%

Day after tomorrow, 2 August, Monday

Time Temperature Precipitation Wind Pressure Humidity
00:00 +22°C° 0 mm 1 mps 745 mmHg 51%
01:00 +19°C° 0 mm 0 mps 745 mmHg 53%
02:00 +19°C° 0 mm 0 mps 745 mmHg 55%
03:00 +18°C° 0 mm 0 mps 745 mmHg 56%
04:00 +18°C° 0 mm 0 mps 746 mmHg 57%
05:00 +21°C° 0 mm 1 mps 746 mmHg 53%
06:00 +23°C° 0 mm 1 mps 746 mmHg 49%
07:00 +25°C° 0 mm 1 mps 746 mmHg 45%
08:00 +27°C° 0 mm 1 mps 746 mmHg 41%
09:00 +29°C° 0 mm 2 mps 746 mmHg 37%
10:00 +31°C° 0 mm 3 mps 746 mmHg 32%
11:00 +33°C° 0 mm 3 mps 746 mmHg 29%
12:00 +34°C° 0 mm 3 mps 746 mmHg 26%
13:00 +35°C° 0 mm 4 mps 746 mmHg 23%
14:00 +36°C° 0 mm 3 mps 745 mmHg 22%
15:00 +36°C° 0 mm 3 mps 745 mmHg 21%
16:00 +36°C° 0 mm 3 mps 745 mmHg 20%
17:00 +35°C° 0 mm 3 mps 745 mmHg 23%
18:00 +34°C° 0 mm 2 mps 745 mmHg 25%
19:00 +32°C° 0 mm 1 mps 745 mmHg 27%
20:00 +30°C° 0 mm 1 mps 745 mmHg 31%
21:00 +27°C° 0 mm 1 mps 745 mmHg 34%
22:00 +25°C° 0 mm 1 mps 745 mmHg 38%
23:00 +24°C° 0 mm 1 mps 745 mmHg 39%

3 August, Tuesday

Time Temperature Precipitation Wind Pressure Humidity
00:00 +24°C° 0 mm 1 mps 745 mmHg 41%
01:00 +23°C° 0 mm 1 mps 745 mmHg 42%
02:00 +23°C° 0 mm 1 mps 745 mmHg 42%
03:00 +23°C° 0 mm 1 mps 745 mmHg 43%
04:00 +22°C° 0 mm 1 mps 745 mmHg 43%
05:00 +24°C° 0 mm 1 mps 745 mmHg 40%
06:00 +26°C° 0 mm 1 mps 745 mmHg 37%
07:00 +28°C° 0 mm 1 mps 746 mmHg 34%
08:00 +30°C° 0 mm 2 mps 745 mmHg 30%
09:00 +34°C° 0 mm 3 mps 745 mmHg 26%
10:00 +36°C° 0 mm 3 mps 745 mmHg 22%
11:00 +37°C° 0 mm 3 mps 745 mmHg 21%
12:00 +38°C° 0 mm 3 mps 744 mmHg 19%
13:00 +39°C° 0 mm 3 mps 744 mmHg 18%
14:00 +39°C° 0 mm 3 mps 744 mmHg 17%
15:00 +39°C° 0 mm 3 mps 743 mmHg 17%
16:00 +39°C° 0 mm 3 mps 743 mmHg 17%
17:00 +38°C° 0 mm 3 mps 742 mmHg 19%
18:00 +37°C° 0 mm 3 mps 742 mmHg 21%
19:00 +36°C° 0 mm 3 mps 742 mmHg 22%
20:00 +33°C° 0 mm 3 mps 743 mmHg 29%
21:00 +29°C° 0 mm 2 mps 743 mmHg 35%
22:00 +26°C° 0 mm 2 mps 743 mmHg 41%
23:00 +26°C° 0 mm 2 mps 743 mmHg 41%

4 August, Wednesday

Time Temperature Precipitation Wind Pressure Humidity
00:00 +25°C° 0 mm 2 mps 743 mmHg 41%
01:00 +24°C° 0 mm 2 mps 743 mmHg 41%
02:00 +24°C° 0 mm 2 mps 743 mmHg 41%
03:00 +24°C° 0 mm 2 mps 743 mmHg 40%
04:00 +24°C° 0 mm 1 mps 743 mmHg 39%
05:00 +26°C° 0 mm 2 mps 743 mmHg 37%
06:00 +27°C° 0 mm 2 mps 743 mmHg 35%
07:00 +29°C° 0 mm 2 mps 743 mmHg 32%
08:00 +33°C° 0 mm 3 mps 743 mmHg 27%
09:00 +36°C° 0 mm 4 mps 743 mmHg 22%
10:00 +40°C° 0 mm 6 mps 743 mmHg 16%
11:00 +41°C° 0 mm 6 mps 742 mmHg 14%
12:00 +42°C° 0 mm 6 mps 742 mmHg 12%
13:00 +44°C° 0 mm 6 mps 742 mmHg 10%
14:00 +42°C° 0 mm 6 mps 742 mmHg 10%
15:00 +42°C° 0 mm 6 mps 741 mmHg 11%
16:00 +42°C° 0 mm 6 mps 741 mmHg 11%
17:00 +40°C° 0 mm 5 mps 741 mmHg 14%
18:00 +37°C° 0 mm 4 mps 741 mmHg 16%
19:00 +36°C° 0 mm 4 mps 741 mmHg 19%
20:00 +34°C° 0 mm 3 mps 741 mmHg 21%
21:00 +31°C° 0 mm 2 mps 741 mmHg 23%
22:00 +30°C° 0 mm 2 mps 741 mmHg 25%
23:00 +28°C° 0 mm 2 mps 741 mmHg 28%

5 August, Thursday

Time Temperature Precipitation Wind Pressure Humidity
00:00 +27°C° 0 mm 1 mps 741 mmHg 30%
01:00 +26°C° 0 mm 1 mps 741 mmHg 33%
02:00 +26°C° 0 mm 1 mps 741 mmHg 35%
03:00 +25°C° 0 mm 1 mps 740 mmHg 37%
04:00 +24°C° 0 mm 2 mps 740 mmHg 39%
05:00 +25°C° 0 mm 2 mps 740 mmHg 41%
06:00 +25°C° 0 mm 2 mps 740 mmHg 43%
07:00 +26°C° 0 mm 2 mps 740 mmHg 45%
08:00 +27°C° 0 mm 3 mps 740 mmHg 46%
09:00 +28°C° 0 mm 3 mps 741 mmHg 46%
10:00 +29°C° 0 mm 4 mps 741 mmHg 47%
11:00 +32°C° 0 mm 4 mps 741 mmHg 41%
12:00 +33°C° 0 mm 4 mps 741 mmHg 36%
13:00 +35°C° 0 mm 4 mps 740 mmHg 31%
14:00 +35°C° 0 mm 5 mps 740 mmHg 30%
15:00 +35°C° 0 mm 6 mps 741 mmHg 29%
16:00 +34°C° 0 mm 6 mps 741 mmHg 28%
17:00 +33°C° 0 mm 6 mps 741 mmHg 31%
18:00 +32°C° 0 mm 5 mps 741 mmHg 33%
19:00 +29°C° 0 mm 5 mps 741 mmHg 35%
20:00 +27°C° 0 mm 4 mps 741 mmHg 44%
21:00 +23°C° 0 mm 4 mps 742 mmHg 53%
22:00 +20°C° 0 mm 3 mps 742 mmHg 62%
23:00 +19°C° 0 mm 3 mps 742 mmHg 67%
Show more